www.pogodaiklimat.ru

Погода и климат >> Архив погоды >> Россия >> Оренбургская область >> Оренбург


АРХИВ ПОГОДЫ в Оренбурге

Время (UTC), дата Ветер
(напр.,м/с)
 
Видим.   Явления Облачность Т
(С)
Тd
(С)
f
(%)
Тe
(С)
Тes
(С)
Комфортность P
(гПа)
Po
(гПа)
Тmin
(С)
Tmax
(С)
R
(мм)
R24
(мм)
S
(см)
09 17.01 ЮВ 3 20 км {снег} ясно -12.2 -15.7 75 -18 -17 по сезону 1029.3 1013.6
12 17.01 Ю 2 20 км {снег} 9/0
[Ac trans Ci fib]
-13.5 -16.4 79 -18 -18 по сезону 1029.7 1014.0
15 17.01 Ю 3 20 км 10/0
[Ac und]
-15.3 -17.0 87 -22 -22 прохладно 1030.3 1014.4 -11.8 0.0
18 17.01 Ю 4 10 км снежные кристаллы 10/0
[As op]
-12.8 -14.7 86 -20 -20 по сезону 1030.5 1014.8
21 17.01 Ю 2 10 км снежные кристаллы 10/10 800 м
[Sc]
-12.6 -14.5 86 -17 -17 по сезону 1031.0 1015.3
00 18.01 ЮВ 2 20 км снежные кристаллы 10/10 600 м
[Sc]
-12.7 -14.7 85 -17 -17 по сезону 1031.3 1015.6
03 18.01 В 2 10 км слабый снег 10/10 300 м
[Frnb]
-13.2 -14.7 88 -18 -18 по сезону 1031.2 1015.4 -15.2 0.2 10
06 18.01 ЮВ 3 4000 м слабый снег 10/0
[As op]
-12.5 -14.7 84 -19 -18 по сезону 1031.0 1015.3
09 18.01 ЮВ 2 10 км снежные кристаллы 9/0
[As trans]
-11.7 -14.4 80 -16 -15 по сезону 1030.9 1015.2
12 18.01 ЮВ 4 10 км снежные кристаллы 10/0
[As op]
-12.1 -14.4 83 -19 -19 по сезону 1030.3 1014.6
15 18.01 В 3 20 км в посл. час снег 6/0
[As op]
-15.3 -17.2 85 -22 -22 прохладно 1030.1 1014.2 -11.5 0.2
18 18.01 В 3 20 км {снег} ясно -19.7 -21.4 86 -27 -27 очень
холодно
1030.4 1014.2
21 18.01 В 3 20 км ясно -21.5 -23.6 83 -29 -29 очень
холодно
1031.0 1014.7
00 19.01 В 4 20 км ясно -21.8 -24.0 82 -31 -31 опасность
обморожения
1030.9 1014.6
03 19.01 В 3 20 км ясно -22.1 -24.3 82 -30 -30 очень
холодно
1030.7 1014.4 -22.6 10
06 19.01 В 5 20 км ясно -19.0 -21.6 80 -29 -28 очень
холодно
1031.2 1015.0
09 19.01 В 6 20 км ясно -15.9 -20.1 70 -26 -25 холодно 1031.5 1015.6
12 19.01 В 4
{11}
20 км ясно -15.8 -20.1 69 -24 -24 холодно 1031.9 1016.0
15 19.01 В 4 20 км ясно -17.7 -20.8 77 -26 -26 очень
холодно
1032.7 1016.6 -15.2
18 19.01 В 4 20 км ясно -18.9 -21.6 79 -28 -28 очень
холодно
1032.8 1016.7
21 19.01 В 4 20 км ясно -19.5 -21.7 83 -28 -28 очень
холодно
1033.2 1017.0
00 20.01 В 4 20 км 6/0
[Ac trans]
-20.0 -21.9 85 -29 -29 очень
холодно
1033.1 1016.9
03 20.01 В 3 20 км ясно -20.3 -22.1 85 -28 -28 очень
холодно
1032.9 1016.7 -20.6 10
06 20.01 В 3 20 км 3/0
[Ci fib]
-18.8 -20.8 84 -26 -25 холодно 1033.0 1016.8 -20.7
09 20.01 В 4 20 км 5/0
[Ci fib]
-14.5 -18.4 72 -22 -21 прохладно 1032.4 1016.5
12 20.01 В 5
{11}
20 км 10/0
[Ci fib]
-13.6 -18.4 67 -22 -22 прохладно 1030.6 1014.8
15 20.01 В 6
{10}
20 км 10/0
[Ac trans Ci fib]
-14.5 -18.3 73 -24 -24 холодно 1030.1 1014.3 -13.5
18 20.01 В 5
{11}
20 км 9/0
[Ac trans]
-14.8 -18.4 74 -24 -24 прохладно 1030.9 1015.0
21 20.01 В 5 20 км 10/0
[Ac As]
-15.0 -18.3 76 -24 -24 прохладно 1030.9 1015.0
00 21.01 В 4
{11}
20 км 9/9 800 м
[Sc]
-15.2 -18.6 75 -23 -23 прохладно 1030.9 1015.0
03 21.01 В 6
{10}
20 км 9/9 800 м
[Sc]
-16.1 -19.6 74 -26 -26 холодно 1030.4 1014.4 -16.1 8
06 21.01 В 4 10 км 9/0
[As trans]
-16.1 -19.6 74 -24 -24 прохладно 1031.1 1015.1 -17.4
09 21.01 В 5-10
{10}
4000 м дымка 10/10 330 м
[St]
-12.6 -14.9 83 -21 -21 по сезону 1030.2 1014.5
12 21.01 В 8-12
{13}
10 км 10/0
[Ac trans Ci fib]
-11.1 -13.6 82 -21 -21 прохладно 1029.1 1013.5
15 21.01 В 6-10
{12}
20 км 4/0
[Ci fib]
-12.9 -16.1 77 -22 -22 прохладно 1029.8 1014.1 -10.8
18 21.01 В 9-14
{16}
20 км 9/0
[As trans]
-12.2 -15.6 76 -23 -23 прохладно 1028.7 1013.0
21 21.01 В 8-13
{16}
10 км позёмок {метель} 9/0
[As trans]
-11.5 -15.4 73 -21 -21 по сезону 1028.8 1013.2
00 22.01 В 7-14
{17}
10 км позёмок {метель} 6/0
[Ci fib]
-11.4 -15.3 73 -21 -21 по сезону 1029.0 1013.3
03 22.01 В 7-14
{14}
10 км позёмок {метель} 8/0
[Ac trans Ci fib]
-12.2 -16.5 70 -22 -22 по сезону 1029.9 1014.2 -13.2 8
06 22.01 В 7-12
{15}
10 км дымка {метель} 10/0
[Ac und]
-14.1 -18.0 72 -24 -24 прохладно 1030.3 1014.5 -14.1
09 22.01 В 6-12
{16}
10 км 10/0
[Ac As Ci fib]
-13.7 -17.7 72 -23 -23 прохладно 1030.7 1014.9
12 22.01 В 7-14
{16}
10 км 10/0
[Ac As]
-14.5 -18.5 72 -25 -25 очень
холодно
1030.6 1015.2
15 22.01 В 6-11
{15}
20 км 10/0
[Ac As]
-15.9 -19.8 72 -26 -26 очень
холодно
1031.9 1016.0 -12.2
18 22.01 В 10-15
{18}
20 км 10/0
[Ac As]
-15.6 -19.8 70 -28 -28 очень
холодно
1030.9 1015.0
21 22.01 В 7-14
{18}
20 км 10/0
[As trans]
-14.6 -19.0 69 -25 -25 холодно 1031.7 1015.8
00 23.01 В 9-16
{18}
20 км 10/0
[Ac und]
-14.5 -19.5 66 -26 -26 холодно 1031.4 1015.5
03 23.01 В 10-18
{19}
20 км 10/0
[Ac und]
-15.1 -20.4 64 -27 -27 холодно 1030.3 1014.4 -15.9 3
06 23.01 В 11-19
{20}
10 км позёмок {метель} 10/0
[Ac As]
-15.7 -21.4 62 -28 -28 очень
холодно
1031.2 1015.3
09 23.01 В 11-18
{22}
4000 м пыльный позёмок {метель} 10/0
[Ac lent Ci fib]
-14.3 -20.6 59 -27 -27 очень
холодно
1031.1 1015.3
12 23.01 В 8-15
{19}
10 км пыльный позёмок {метель} 10/0
[Ac As]
-13.8 -20.7 56 -24 -24 холодно 1031.2 1015.4
15 23.01 В 9-16
{18}
10 км пыльный позёмок 10/0
[Ac trans]
-14.6 -21.4 56 -26 -26 очень
холодно
1031.8 1015.9 -13.4
18 23.01 В 11-18
{21}
10 км пыльный позёмок 10/0
[Ac trans]
-14.8 -21.6 56 -27 -27 очень
холодно
1031.0 1015.1
21 23.01 В 9-16
{22}
10 км пыльный позёмок 10/0
[Ac As]
-14.7 -21.9 54 -26 -26 холодно 1031.4 1015.6
00 24.01 В 9-14
{18}
10 км пыльный позёмок 10/0
[Ac und]
-14.4 -21.8 53 -26 -26 холодно 1032.0 1016.2
03 24.01 В 10-17
{20}
10 км пыльный позёмок 10/0
[Ac und]
-13.7 -21.9 50 -25 -25 прохладно 1032.1 1016.3 -15.4 3
06 24.01 В 9-15
{18}
2000 м пыльная буря {метель} 10/0
[Ac und]
-12.8 -21.3 49 -24 -24 прохладно 1033.0 1017.2

 

Местоположение метеостанции Оренбург (Оренбургская область, Россия): широта 51.68 долгота 55.10 высота над уровнем моря 117 м.

В архиве по умолчанию представлена погода в Оренбурге за последнюю неделю. Архивные данные за месяц целиком и за предыдущие месяцы, начиная с января 2011 года, Вы можете получить, выбрав интересующий диапазон дат из раскрывающегося списка и нажав кнопку "Ввод!".

Внимание! Время в таблицах - всемирное. Для получения местного времени необходимо прибавить поправку, которая в Оренбурге равна 5 ч.

Смотрите также архив погоды в соседних городах и на ближайших метеорологических станциях:

Погода в Соль-Илецк (Оренбургская область, Россия) (59 км)
Погода в Акбулаке (Оренбургская область, Россия) (82 км)
Погода в Новокуйбышевске (Самарская область, Россия) (82 км)
Погода в Беляевке (Оренбургская область, Россия) (96 км)
Погода в Чингирлау (Западно-Казахстанская область, Казахстан) (96 км)
Погода в Новосергиевке (Оренбургская область, Россия) (110 км)
Погода в Троицком Т (Оренбургская область, Россия) (113 км)
Погода в Илеке (Оренбургская область, Россия) (121 км)
Погода в Кумертау (Башкирия, Россия) (129 км)
Погода в Шарлыке (Оренбургская область, Россия) (141 км)

Пояснения к столбцам:

Ветер - указаны скорость ветра в м/с - средняя за 10 мин, порывы в срок и между сроками (в фигурных скобках) и направление, откуда дует ветер: С - северный, СВ - северо-восточный, В - восточный, ЮВ - юго-восточный, Ю - южный, ЮЗ - юго-западный, З - западный, СЗ - северо-западный.
Видимость - горизонтальная дальность видимости в метрах или километрах. При видимости от 1 до 10 км при отсутствии осадков обычно наблюдается дымка, при ухудшении видимости до 1 км и менее - туман. В сухую погоду видимость может ухудшаться дымом, пылью или мглою.
Явления - указаны атмосферные явления, наблюдавшиеся в срок или в последний час перед сроком; фигурными скобками обозначены явления, наблюдавшиеся между сроками (за 1-3 часа до срока); квадратными скобками обозначены град или гололедные отложения с указанием их диаметра в мм.
Облачность - указаны через наклонную черту общая и нижняя облачность в баллах и высота нижней границы облаков в метрах; квадратными скобками обозначены формы облаков: Ci - перистые, Cs - перисто-слоистые, Cc - перисто-кучевые, Ac - высококучевые, As - высокослоистые, Sc - слоисто-кучевые, Ns - слоисто-дождевые, Cu - кучевые, Cb - кучево-дождевые. Подробнее классификацию облаков см. в Атласе облаков (PDF).
T - Температура воздуха - температура, измеренная на высоте 2 м над землей.
Td - Температура точки росы - температура, при понижении до которой содержащийся в воздухе водяной пар достигнет насыщения.
f - Относительная влажность воздуха - влажноcть воздуха, измеренная на высоте 2 м над землей.
Te - Эффективная температура - температура, которую ощущает одетый по сезону человек в тени. Характеристика душности погоды. При расчете учитывается влияние влажности воздуха и скорости ветра на теплоощущения человека.
Tes - Эффективная температура на солнце - температура, которую ощущает человек, с поправкой на солнечный нагрев. Характеристика знойности погоды. Зависит от высоты солнца над горизонтом, облачности и скорости ветра. Ночью, в пасмурную погоду, а также при ветре 12 м/с и более поправка равна нулю.
P - Атмосферное давление - приведенное к уровню моря атмосферное давление.
Po - Атмосферное давление - измеренное на уровне метеостанции атмосферное давление.
Tmin - Минимальная температура - минимум температуры воздуха на высоте 2 м над землей.
Tmax - Максимальная температура - максимум температуры воздуха на высоте 2 м над землей.
R - Количество осадков - Количество выпавших осадков за период времени, мм. При наведении курсора мыши на число - период времени, за который выпало указанное количество осадков.
R24 - Количество осадков - Количество выпавших осадков за 24 часа, мм.
S - Снежный покров - Высота снежного покрова, см. При наведении курсора мыши на число - состояние снежного покрова и степень покрытия местности в баллах.